Time,TemperatureF,DewpointF,PressureIn,WindDirection,WindDirectionDegrees,WindSpeedMPH,WindSpeedGustMPH,Humidity,HourlyPrecipIn,Conditions,Clouds,dailyrainin,SolarRadiationWatts/m^2,SoftwareType,DateUTC
2013-07-23 00:00:00,72.0,63.0,30.05,SSE,166,10.0,-999.0,74,-99.99,,,-99.99,0.000000,,2013-07-23 06:00:00,
2013-07-23 00:52:00,72.0,63.0,30.05,SSE,166,10.0,-999.0,74,-99.99,,,-99.99,0.000000,,2013-07-23 06:52:00,
2013-07-23 02:00:00,72.0,62.0,30.04,South,175,7.0,12.0,72,-99.99,,,-99.99,0.000000,,2013-07-23 08:00:00,
2013-07-23 02:52:00,72.0,62.0,30.04,South,175,7.0,12.0,72,-99.99,,,-99.99,0.000000,,2013-07-23 08:52:00,
2013-07-23 03:00:00,70.0,62.0,30.04,SSE,158,4.0,9.0,78,-99.99,,,-99.99,0.010000,,2013-07-23 09:00:00,
2013-07-23 03:53:00,70.0,62.0,30.04,SSE,158,4.0,9.0,78,-99.99,,,-99.99,0.010000,,2013-07-23 09:53:00,
2013-07-23 04:00:00,69.0,63.0,30.04,SSE,162,4.0,6.0,81,-99.99,,,-99.99,0.010000,,2013-07-23 10:00:00,
2013-07-23 04:52:00,69.0,63.0,30.04,SSE,162,4.0,6.0,81,-99.99,,,-99.99,0.010000,,2013-07-23 10:52:00,
2013-07-23 05:00:00,68.0,62.0,30.04,South,171,4.0,6.0,84,-99.99,,,-99.99,0.020000,,2013-07-23 11:00:00,
2013-07-23 05:52:00,68.0,62.0,30.04,South,171,4.0,6.0,84,-99.99,,,-99.99,0.020000,,2013-07-23 11:52:00,
2013-07-23 06:00:00,67.0,62.0,30.05,SSE,155,4.0,7.0,85,-99.99,,,-99.99,0.070000,,2013-07-23 12:00:00,
2013-07-23 07:00:00,68.0,62.0,30.06,SSE,167,5.0,6.0,82,-99.99,,,-99.99,25.309999,,2013-07-23 13:00:00,
2013-07-23 08:00:00,72.0,62.0,30.06,South,173,6.0,7.0,72,-99.99,,,-99.99,170.500000,,2013-07-23 14:00:00,
2013-07-23 08:53:00,72.0,62.0,30.06,South,173,6.0,7.0,72,-99.99,,,-99.99,170.500000,,2013-07-23 14:53:00,
2013-07-23 09:00:00,74.0,61.0,30.07,South,177,9.0,10.0,64,-99.99,,,-99.99,380.399994,,2013-07-23 15:00:00,
2013-07-23 09:52:00,74.0,61.0,30.07,South,177,9.0,10.0,64,-99.99,,,-99.99,380.399994,,2013-07-23 15:52:00,
2013-07-23 11:00:00,80.0,60.0,30.06,South,177,7.0,15.0,50,-99.99,,,-99.99,786.299988,,2013-07-23 17:00:00,
2013-07-23 11:56:00,80.0,60.0,30.06,South,177,7.0,15.0,50,-99.99,,,-99.99,786.299988,,2013-07-23 17:56:00,
2013-07-23 12:00:00,84.0,59.0,30.04,South,177,6.0,13.0,43,-99.99,,,-99.99,910.000000,,2013-07-23 18:00:00,
2013-07-23 12:57:00,84.0,59.0,30.04,South,177,6.0,13.0,43,-99.99,,,-99.99,910.000000,,2013-07-23 18:57:00,
2013-07-23 13:00:00,86.0,56.0,30.03,SSW,198,6.0,11.0,35,-99.99,,,-99.99,959.000000,,2013-07-23 19:00:00,
2013-07-23 13:55:00,86.0,56.0,30.03,SSW,198,6.0,11.0,35,-99.99,,,-99.99,959.000000,,2013-07-23 19:55:00,
2013-07-23 14:00:00,89.0,57.0,30.00,SSW,197,7.0,13.0,34,-99.99,,,-99.99,976.000000,,2013-07-23 20:00:00,
2013-07-23 14:59:00,89.0,57.0,30.00,SSW,197,7.0,13.0,34,-99.99,,,-99.99,976.000000,,2013-07-23 20:59:00,
2013-07-23 15:00:00,87.0,59.0,29.99,East,97,9.0,16.0,38,-99.99,,,-99.99,587.900024,,2013-07-23 21:00:00,
2013-07-23 15:57:00,87.0,59.0,29.99,East,97,9.0,16.0,38,-99.99,,,-99.99,587.900024,,2013-07-23 21:57:00,
2013-07-23 16:00:00,91.0,52.0,29.96,ENE,66,6.0,18.0,27,-99.99,,,-99.99,775.000000,,2013-07-23 22:00:00,
2013-07-23 17:00:00,93.0,51.0,29.94,ENE,76,4.0,-999.0,24,-99.99,,,-99.99,739.400024,,2013-07-23 23:00:00,
2013-07-23 17:59:00,93.0,51.0,29.94,ENE,76,4.0,-999.0,24,-99.99,,,-99.99,739.400024,,2013-07-23 23:59:00,
2013-07-23 18:00:00,88.0,57.0,29.93,SE,143,8.0,-999.0,34,-99.99,,,-99.99,575.099976,,2013-07-24 00:00:00,
2013-07-23 18:58:00,88.0,57.0,29.93,SE,143,8.0,-999.0,34,-99.99,,,-99.99,575.099976,,2013-07-24 00:58:00,
2013-07-23 19:00:00,86.0,59.0,29.95,NE,54,7.0,-999.0,41,-99.99,,,-99.99,67.519997,,2013-07-24 01:00:00,
2013-07-23 20:56:00,77.0,63.0,29.99,South,177,17.0,17.0,63,-99.99,,,-99.99,10.830000,,2013-07-24 02:56:00,
2013-07-23 21:00:00,74.0,65.0,30.02,South,176,13.0,-999.0,73,-99.99,,,-99.99,0.040000,,2013-07-24 03:00:00,
2013-07-23 21:57:00,74.0,65.0,30.02,South,176,13.0,-999.0,73,-99.99,,,-99.99,0.040000,,2013-07-24 03:57:00,
2013-07-23 22:00:00,71.0,66.0,30.06,South,176,11.0,-999.0,84,-99.99,,,-99.99,0.010000,,2013-07-24 04:00:00,
2013-07-23 23:00:00,71.0,66.0,30.07,ESE,122,4.0,19.0,84,-99.99,,,-99.99,0.010000,,2013-07-24 05:00:00,
2013-07-23 23:52:00,71.0,66.0,30.07,ESE,122,4.0,19.0,84,-99.99,,,-99.99,0.010000,,2013-07-24 05:52:00,